Location: *
(37.4917°N, 71.5558°E)
Time: 21:04:41
(UTC+00:00)

Cosmos 2082 Rocket - Pass Details

Date: 09 April 2020
Orbit: 831 x 855 km, 71.0° (Epoch: 31 May)

Event Time Altitude Azimuth Distance (km) Brightness Sun altitude
Exits shadow 17:10:21 16° 24° (NNE) 2,093 4.4 -36.0°
Drops below altitude 10° 17:11:20 10° 24° (NNE) 2,461 4.9 -36.1°
Sets 17:13:47 0° 24° (NNE) 3,403 5.7 -36.4°
